Tracking 18980 objects as of 20-Feb-2018
HD Live streaming from Space Station
objects crossing your sky now

OPS 1570

Track OPS 1570 now!
OPS 1570 is classified as:


NORAD ID: 5851
Int'l Code: 1972-010A
Perigee: 35,887.8 km
Apogee: 35,983.1 km
Inclination: 7.1 °
Period: 1,443.3 minutes
Semi major axis: 42306 km
RCS: Unknown
Launch date: March 1, 1972
Source: United States (US)
Launch site: AIR FORCE EASTERN TEST RANGE (AFETR)
aabbcc
Your satellite tracking list
Your tracking list is empty




NASA's NSSDC Master Catalog

Two Line Element Set (TLE):
1 05851U 72010A   17357.75293319 0.00000000  00000-0  00000-0 0    04
2 05851   7.1467 303.1164 0011254 294.5944  65.3003  0.99768410    05
Source of the keplerian elements: McCants